COSMOS 2251 DEB, 34410

Orbit data source: Space-Track

COSMOS 2251 DEB, 34410 is space debris in LEO originally from a launch on Wed, 16 Jun 1993 UTC launched from the Plesetsk Missile And Space Complex (PKMTR). The debris from Iridium 33, an American commercial communications satellite, has been tracked extensively since its accidental collision with the defunct Russian satellite Cosmos 2251 in 2009. This event, occurring at high speed in low Earth orbit (LEO), generated thousands of pieces of space debris, significantly increasing the risk of further collisions. The Iridium 33 debris cloud has impacted space traffic management and orbital debris mitigation strategies, making it a subject of ongoing study in space situational awareness.

Loading next visibility...
Identifier
34410, 1993-036RB
Orbit
LEO
Country
Flag of CISCIS
Related business
Manufacturer
Unknown
Mission
Spacecraft
Bus & Motor
Unknown
Mass
Unknown
Launch date (UTC)
1993-06-16 (33 years ago)
Launch vehicle
Unknown
Launch site
Plesetsk Missile And Space Complex (PKMTR)
Object type
Payload
Rocket body
Debris
Shape & HBR
Unknown shape, 0.1 m
Radar Cross Section
Small (<0.1 m²)

Expand to show TLE details & history
Last TLE update: 4 hours ago

TLE from 4 hours ago
0 COSMOS 2251 DEB
1 34410U 93036RB  26062.48988296  .00079227  00000-0  27052-2 0  9998
2 34410  73.7306  88.3423 0026234 277.6175  82.2046 15.29604424910043
Epoch: 2026-03-03T11:45Z
TLE epoch observation values (Epoch: 2026-03-03T11:45:25.887Z)
Latitude
-0.00004°
Longitude
110.71623°
Altitude
477.306 km
Speed
7.629 km/s
True Right ascension
05h 53m 22s
True Declination
0° 00' 00"
Sunlit
Object was in daylight at epoch
Visualization orbit readout
Latitude
Unknown
Longitude
Unknown
Altitude
Unknown
Speed
Unknown
Apparent Right ascension
Unknown
Apparent Declination
Unknown
Sunlit
N/A
Visualization observer readout
Local Sidereal Time
19:34:43
Azimuth
Unknown
Elevation
Unknown
Doppler factor
Unknown
Orbital elements
Apogee altitude
492.52 km
Perigee altitude
456.566 km
Semi-major axis
6,852.68 km
Eccentricity
0.00262
Inclination
73.7306°
RAAN
88.3423°
Arg. of periapsis
277.6175°
True anomaly
82.50257°
Mean anomaly
82.2046°
Eccentric anomaly
82.35357°
Mean motion
3.82607 °/min
Orbital period
94.09 mins
BSTAR
0.0027052
Loading maneuver chart data...
Computing Atmospheric mass density...

Documentation

Showing up to 5 results
|